Theta_e
333 337 339 341 343 345 344 346 347 344 346 345 337 342 343 349 348 347 354 349 338 337 343 351 345 344 351 351 351 352 353 351 350 345 346 344 345 341 339 340 343 345 345
333 337 339 341 343 343 345 348 347 349 347 348 346 348 343 347 348 352 350 351 353 353 349 353 350 348 343 348 353 354 353 352 347 340 341 330 335 339 338 339 345 343 344
335 334 337 337 343 343 346 347 347 348 347 348 349 346 350 344 344 341 348 347 350 350 350 351 348 335 337 340 345 354 354 348 352 350 337 328 324 330 336 338 340 338 341
337 337 337 339 342 343 347 346 348 346 348 349 347 340 340 341 340 344 349 348 351 349 349 351 351 337 331 336 349 357 356 351 337 344 344 335 333 325 323 333 335 339 338
335 335 337 341 343 345 347 346 348 348 348 349 348 346 343 347 349 347 348 348 351 350 351 350 350 352 350 349 352 353 355 346 332 333 336 338 337 333 326 324 327 334 337
334 336 341 342 342 345 349 349 348 348 350 348 349 345 343 343 345 346 344 348 345 348 349 352 351 353 346 344 352 352 355 354 333 335 340 337 336 334 330 328 330 329 333
332 334 337 338 340 344 347 349 346 347 349 350 348 349 348 345 344 345 345 346 344 347 345 352 349 352 350 352 353 353 352 353 352 352 352 352 344 337 334 332 331 330 335
330 333 335 339 341 342 347 349 346 347 349 351 350 351 350 349 350 349 348 348 348 347 350 353 352 352 354 354 354 352 352 352 351 348 354 354 350 350 341 336 334 331 331
330 331 337 338 335 340 342 349 347 348 350 350 351 351 352 349 348 351 352 350 349 356 355 353 354 352 353 354 354 352 349 352 354 352 351 352 352 351 350 347 344 339 330
332 334 337 337 338 339 342 346 350 348 349 352 351 351 351 352 352 352 351 350 349 348 353 353 353 353 351 355 349 350 351 351 351 351 350 349 350 350 350 349 347 346 341
330 331 337 338 338 341 343 341 345 348 348 352 351 350 351 352 353 351 351 352 352 347 347 350 350 352 355 353 352 349 349 347 347 350 348 349 350 350 348 350 348 348 345
331 334 336 335 334 337 338 340 340 336 347 350 352 352 352 353 352 351 352 354 351 353 353 352 353 351 352 350 352 349 351 349 345 348 347 348 351 347 350 347 345 345 346
331 332 336 335 335 332 334 339 336 337 338 345 350 350 349 351 351 351 353 354 353 353 354 353 351 350 350 351 354 351 350 350 351 352 351 349 346 347 348 347 345 346 347
332 332 338 339 335 336 336 334 336 339 337 337 348 348 347 349 351 352 352 351 354 352 352 353 351 351 351 351 351 351 350 349 351 352 352 349 350 346 347 347 345 344 343
334 337 337 337 336 336 336 338 338 336 336 338 345 345 347 350 349 351 350 351 351 354 353 352 352 351 348 343 339 345 351 348 348 348 351 347 348 350 347 348 345 344 344
334 338 340 336 332 331 333 334 335 337 344 343 340 341 345 347 346 349 351 350 351 353 351 351 348 344 341 330 333 340 347 346 344 345 344 347 338 341 341 338 339 341 341
333 334 337 339 340 340 340 340 339 339 338 338 339 340 341 342 344 345 347 348 349 350 348 346 341 333 327 323 327 334 346 346 346 344 344 345 334 329 338 344 340 341 338
327 329 334 335 336 338 339 338 335 332 332 332 332 333 332 334 333 335 340 343 344 344 343 335 328 323 321 319 321 329 343 345 339 339 339 328 323 322 328 341 341 341 335
324 323 325 330 333 334 337 333 330 327 327 326 326 328 330 328 329 329 332 339 342 338 335 330 323 318 316 316 321 332 345 335 327 325 329 325 319 320 324 333 329 325 326
320 318 319 320 324 326 332 328 325 325 324 324 325 325 327 327 327 330 331 334 332 329 326 323 323 320 316 315 315 325 340 331 324 320 317 320 317 316 318 328 319 315 318
316 316 315 314 316 320 325 324 323 322 324 324 321 322 323 326 327 328 331 330 326 324 322 320 321 319 317 315 312 315 318 325 330 326 320 317 315 313 313 316 316 315 316
313 314 313 313 314 317 317 315 315 320 321 319 317 317 318 322 325 327 328 329 325 321 320 319 318 319 317 312 310 311 314 318 316 315 313 313 311 311 312 316 317 317 321
313 313 312 312 314 314 315 313 315 317 319 317 317 318 319 320 319 320 324 324 328 324 322 318 315 315 313 311 308 308 309 312 310 309 311 311 311 312 317 317 317 320 322
309 309 308 308 309 311 313 313 315 317 316 315 316 317 315 308 306 307 305 304 305 316 318 320 315 309 307 305 302 302 303 306 307 304 306 312 313 313 313 317 317 318 316
312 309 308 307 309 310 310 314 316 315 314 314 314 314 311 305 300 298 299 300 296 299 308 306 308 307 302 298 298 297 297 298 299 299 312 313 313 313 313 314 314 312 312
308 307 307 306 306 307 308 311 312 313 314 313 314 312 311 309 305 300 297 299 298 297 296 297 298 297 297 297 296 295 295 296 298 308 309 307 307 306 306 307 308 307 309
Wind_Speed
12 14 16 14 11 8 14 11 7 6 3 2 2 3 3 2 3 4 7 10 5 3 4 1 2 6 5 4 4 3 5 3 2 4 4 3 6 11 13 11 14 22 20
6 15 17 15 12 11 14 9 8 6 4 2 1 2 4 1 2 2 3 3 7 6 4 4 2 4 4 6 6 4 3 3 4 2 4 5 6 4 10 9 14 11 13
4 10 16 12 12 12 14 12 9 7 4 3 3 3 4 2 3 1 1 2 6 5 3 1 4 1 2 4 5 3 6 3 4 11 4 2 4 0 3 8 9 7 10
4 5 14 14 14 12 12 13 9 7 6 6 3 4 4 3 3 3 2 2 5 5 5 4 4 4 2 3 3 3 4 4 4 3 8 8 1 5 5 1 5 7 13
6 7 5 6 14 13 11 12 10 8 7 6 6 5 4 3 2 2 4 3 1 5 6 4 3 4 2 3 4 4 6 4 1 2 5 5 4 8 4 4 2 7 4
9 6 4 5 7 11 12 12 12 8 7 6 5 6 6 5 4 4 4 3 2 3 3 5 4 4 3 3 4 2 5 5 4 1 6 4 3 2 2 1 4 2 5
14 11 10 9 7 14 12 11 10 9 7 6 6 6 6 6 7 6 5 5 3 2 5 3 4 2 2 3 1 4 4 3 1 1 3 3 4 5 1 2 1 2 2
15 17 15 11 7 5 11 13 12 9 8 6 7 6 6 3 4 5 4 3 5 4 6 5 5 4 2 1 3 2 4 3 3 7 6 3 4 8 5 4 3 1 2
18 14 14 13 11 7 8 14 11 9 11 8 5 5 5 6 4 5 4 3 3 4 7 7 5 4 4 3 4 2 3 3 3 4 6 3 2 3 3 5 7 5 3
17 14 15 12 12 8 7 5 9 10 11 11 7 5 6 5 4 4 4 4 4 3 6 6 6 6 5 5 5 2 2 2 3 3 5 4 3 4 3 3 2 2 2
19 14 17 15 12 8 9 7 2 8 8 11 9 7 6 7 6 5 5 3 3 6 6 6 6 6 6 6 4 3 2 2 0 2 1 3 3 2 3 3 3 4 1
20 15 19 17 13 10 8 7 4 7 6 7 10 8 7 6 6 6 6 5 5 4 6 5 5 3 4 4 5 5 2 5 5 6 3 4 3 1 3 2 3 2 1
10 14 15 14 10 8 6 4 3 5 6 8 9 8 7 7 7 6 6 5 5 5 4 4 3 3 1 2 5 6 5 5 3 3 5 6 1 3 3 2 3 2 2
9 8 12 14 13 11 11 10 9 8 9 10 11 11 10 8 8 7 7 7 6 5 5 4 4 3 2 3 3 2 4 3 4 2 4 1 4 1 2 2 3 2 4
11 12 17 15 12 11 12 10 11 12 11 11 6 5 5 7 7 6 7 6 6 6 5 5 5 4 6 3 4 3 4 6 2 5 6 6 9 8 2 1 2 2 2
13 16 16 18 14 13 12 13 11 9 13 11 7 2 2 6 5 4 6 5 6 6 6 5 3 6 5 5 4 3 1 8 4 1 6 5 11 9 9 3 4 4 2
4 5 11 11 11 12 10 9 7 5 9 11 8 9 7 4 4 3 4 5 5 4 4 2 8 6 5 7 4 6 4 5 5 5 6 6 5 5 5 6 5 4 4
13 10 9 9 8 9 9 10 10 11 11 10 9 6 8 6 7 8 6 4 2 2 5 9 8 7 6 12 10 4 6 9 8 7 8 6 5 6 6 5 6 7 6
10 10 10 8 7 7 8 9 11 10 9 7 6 5 5 7 6 8 7 5 8 9 9 8 9 8 6 10 7 3 8 9 8 6 6 6 6 8 8 6 6 6 6
9 8 9 8 7 6 5 11 9 9 8 8 7 6 6 6 6 4 7 7 11 10 8 11 8 10 8 15 16 10 5 8 6 5 6 7 6 6 8 6 6 6 5
11 7 8 7 7 8 11 12 10 9 8 7 6 6 6 6 5 5 6 10 8 11 9 10 8 8 10 12 16 14 7 3 5 4 3 3 7 8 6 5 5 2 4
10 8 8 8 8 9 11 10 10 5 8 7 6 5 6 5 4 6 6 7 10 9 8 7 7 6 7 13 15 18 13 10 6 4 2 2 6 5 7 5 6 9 6
7 6 8 9 6 7 8 10 5 7 6 6 6 5 5 6 9 8 5 4 5 6 6 5 5 5 5 6 16 17 17 14 5 5 6 9 7 6 5 9 9 10 7
6 4 6 6 6 7 9 8 6 6 6 6 6 5 8 9 9 7 7 6 5 4 5 5 6 3 2 4 3 4 5 9 7 10 6 6 6 5 2 5 7 5 5
4 5 6 7 6 3 5 4 5 5 6 5 5 5 5 7 8 8 5 5 5 4 4 4 4 4 1 1 3 4 4 4 5 7 3 8 8 8 7 8 9 9 9
6 5 5 6 6 6 6 5 4 4 5 5 2 3 4 3 4 6 4 8 9 10 11 10 5 3 3 0 6 4 4 5 7 2 7 7 7 8 7 8 7 8 10
Wind_Direction
150 129 140 134 136 113 146 141 153 149 137 125 117 48 56 138 126 152 144 146 153 138 117 255 29 35 344 320 28 9 322 327 358 28 347 12 43 64 67 31 30 32 346
117 126 143 139 146 140 142 141 145 163 156 116 139 127 113 55 116 144 139 150 139 133 153 109 45 40 7 6 3 15 346 343 6 85 69 17 345 9 77 55 76 111 280
355 158 151 159 147 153 146 153 159 170 156 186 119 92 85 57 42 56 182 192 119 117 97 76 129 94 80 35 332 350 37 12 343 50 120 113 176 95 74 53 82 60 5
183 213 166 158 162 169 155 154 156 166 178 201 169 157 151 144 204 175 199 206 170 156 210 182 144 78 43 359 324 3 41 75 14 20 39 38 238 100 356 37 73 66 43
178 222 147 145 169 165 164 158 162 166 191 185 171 172 167 165 159 176 173 195 163 169 182 154 138 125 56 14 16 14 44 65 166 187 105 343 316 75 107 285 25 31 190
200 171 145 19 209 174 165 167 165 175 189 181 189 184 197 185 149 169 155 180 200 212 197 179 151 114 104 350 310 38 42 68 126 25 108 179 223 80 105 7 354 75 249
199 168 153 222 171 178 177 170 169 163 179 173 192 195 199 194 180 175 178 177 205 219 228 166 156 145 182 229 314 21 20 15 35 187 202 140 155 111 183 82 148 281 302
203 184 185 181 180 144 183 176 165 169 160 183 202 199 196 203 187 181 172 185 196 188 195 175 170 187 202 321 45 23 1 18 19 15 5 36 30 133 168 169 148 273 288
204 159 172 190 180 165 149 164 166 176 165 173 196 206 207 197 228 224 208 177 194 173 169 162 163 181 166 160 113 61 334 311 345 49 34 47 30 29 63 136 196 171 162
189 163 169 186 190 168 143 133 167 180 178 165 176 202 209 212 204 204 208 178 180 142 151 168 182 180 195 180 138 105 22 26 337 26 13 10 356 23 9 28 17 15 108
183 175 174 183 182 136 128 100 82 178 191 165 173 188 212 203 196 192 221 190 163 177 179 193 194 197 177 157 161 172 205 118 27 316 309 309 343 8 1 17 23 27 114
181 162 165 176 178 158 146 107 113 31 245 165 179 185 198 204 204 203 197 190 193 164 193 181 167 176 180 181 179 187 208 177 224 234 221 256 252 196 70 53 21 64 75
166 174 157 170 157 124 126 124 101 293 290 290 174 184 199 192 202 209 206 200 196 179 167 147 155 141 225 257 206 185 227 233 229 245 224 219 193 165 180 115 75 34 59
158 156 143 153 147 156 150 144 241 224 255 291 208 186 194 181 193 202 207 195 193 193 193 190 184 172 230 5 23 244 240 291 289 352 355 249 103 80 184 121 121 57 23
146 127 127 137 149 161 164 184 208 216 233 279 215 156 266 191 190 192 183 177 183 193 191 191 187 179 96 57 14 327 284 233 291 5 30 45 43 347 343 110 33 48 31
135 133 125 136 151 168 179 194 202 250 227 190 202 149 266 249 202 180 168 167 186 198 192 196 174 103 89 44 37 340 8 92 110 74 71 58 34 17 7 328 93 116 87
304 71 138 144 147 164 165 143 120 78 61 66 51 48 50 35 320 251 197 186 194 183 180 155 107 86 68 9 10 26 57 103 110 79 34 64 37 11 14 2 37 28 49
28 29 53 65 51 85 84 93 77 67 64 56 54 40 61 51 44 28 356 309 257 152 88 88 83 75 25 357 345 356 84 86 65 71 92 92 55 21 7 34 48 73 47
41 24 10 30 54 66 81 88 77 77 77 77 71 50 58 66 50 46 2 320 85 82 83 85 86 79 36 358 357 63 105 104 89 71 78 89 63 15 23 58 54 36 11
68 43 17 34 24 17 106 99 96 85 70 67 64 56 60 59 58 57 48 55 85 83 88 90 72 65 52 24 31 43 104 108 114 103 86 73 95 63 42 66 53 38 349
77 63 56 50 37 30 69 73 80 82 91 84 67 53 47 70 56 35 64 81 69 84 79 86 67 52 41 38 24 24 50 91 116 92 79 68 44 39 41 51 60 30 304
87 83 74 56 38 50 77 71 60 45 80 77 71 64 57 49 59 60 55 88 105 98 108 89 77 53 36 38 30 26 32 30 70 70 23 21 14 4 353 1 357 358 13
97 110 110 103 80 74 75 79 44 48 62 75 73 67 65 61 44 33 40 53 92 121 112 104 87 73 36 29 20 19 20 27 33 359 328 334 347 6 9 14 39 41 47
128 131 110 95 105 116 113 109 102 87 68 56 65 50 64 58 44 44 37 40 23 50 79 117 96 53 43 45 9 31 15 19 0 346 317 317 300 315 324 51 48 52 50
132 134 132 124 119 108 95 103 117 122 112 100 80 75 84 80 80 63 36 56 53 335 85 73 106 135 126 194 74 32 16 342 326 314 10 53 47 51 41 48 51 40 35
141 130 132 130 140 139 133 135 125 114 109 104 95 116 108 105 103 109 89 53 75 29 55 69 98 56 96 359 67 39 357 316 300 54 64 59 54 52 42 41 40 39 38